Time,TemperatureF,DewpointF,PressureIn,WindDirection,WindDirectionDegrees,WindSpeedMPH,WindSpeedGustMPH,Humidity,HourlyPrecipIn,Conditions,Clouds,dailyrainin,SoftwareType,DateUTC
2013-06-29 00:01:00,63.1,60.2,29.98,West,270,0.0,0.0,90,0.00,,,0.00,WUHU216HW,2013-06-29 04:01:00,
2013-06-29 00:06:00,63.1,60.2,29.98,West,270,0.0,0.0,90,0.00,,,0.00,WUHU216HW,2013-06-29 04:06:00,
2013-06-29 00:11:00,62.9,60.0,29.98,West,270,0.0,0.0,90,0.00,,,0.00,WUHU216HW,2013-06-29 04:11:00,
2013-06-29 00:16:00,62.9,60.0,29.98,West,270,0.0,0.0,90,0.00,,,0.00,WUHU216HW,2013-06-29 04:16:00,
2013-06-29 00:21:00,62.9,60.0,29.98,West,270,0.0,0.0,90,0.00,,,0.00,WUHU216HW,2013-06-29 04:21:00,
2013-06-29 00:26:00,62.7,59.9,29.98,West,270,0.0,0.0,90,0.00,,,0.00,WUHU216HW,2013-06-29 04:26:00,
2013-06-29 00:31:00,62.7,59.9,29.98,West,270,0.0,0.0,90,0.00,,,0.00,WUHU216HW,2013-06-29 04:31:00,
2013-06-29 00:36:00,62.7,59.9,29.98,West,270,0.0,0.0,90,0.00,,,0.00,WUHU216HW,2013-06-29 04:36:00,
2013-06-29 00:41:00,62.7,59.9,29.97,West,270,0.0,0.0,90,0.00,,,0.00,WUHU216HW,2013-06-29 04:41:00,
2013-06-29 00:46:00,62.7,59.9,29.98,West,270,0.0,0.0,90,0.00,,,0.00,WUHU216HW,2013-06-29 04:46:00,
2013-06-29 00:51:00,62.6,59.7,29.97,West,270,0.0,0.0,90,0.00,,,0.00,WUHU216HW,2013-06-29 04:51:00,
2013-06-29 00:56:00,62.6,59.7,29.98,West,270,0.0,0.0,90,0.00,,,0.00,WUHU216HW,2013-06-29 04:56:00,
2013-06-29 01:01:00,62.6,59.7,29.97,West,270,0.0,0.0,90,0.00,,,0.00,WUHU216HW,2013-06-29 05:01:00,
2013-06-29 01:06:00,62.6,59.7,29.97,West,270,0.0,0.0,90,0.00,,,0.00,WUHU216HW,2013-06-29 05:06:00,
2013-06-29 01:11:00,62.6,59.7,29.97,West,270,0.0,0.0,90,0.00,,,0.00,WUHU216HW,2013-06-29 05:11:00,
2013-06-29 01:16:00,62.6,59.7,29.98,West,270,0.0,0.0,90,0.00,,,0.00,WUHU216HW,2013-06-29 05:16:00,
2013-06-29 01:21:00,62.6,59.7,29.97,West,270,0.0,0.0,90,0.00,,,0.00,WUHU216HW,2013-06-29 05:21:00,
2013-06-29 01:26:00,62.6,59.7,29.97,West,270,0.0,0.0,90,0.00,,,0.00,WUHU216HW,2013-06-29 05:26:00,
2013-06-29 01:31:00,62.6,59.7,29.97,West,270,0.0,0.0,90,0.00,,,0.00,WUHU216HW,2013-06-29 05:31:00,
2013-06-29 01:36:00,62.6,59.7,29.97,West,270,0.0,0.0,90,0.00,,,0.00,WUHU216HW,2013-06-29 05:36:00,
2013-06-29 01:41:00,62.6,59.7,29.97,West,270,0.0,0.0,90,0.00,,,0.00,WUHU216HW,2013-06-29 05:41:00,
2013-06-29 01:46:00,62.7,59.9,29.97,West,270,0.0,0.0,90,0.00,,,0.00,WUHU216HW,2013-06-29 05:46:00,
2013-06-29 01:51:00,62.7,59.9,29.97,West,270,0.0,0.0,90,0.00,,,0.00,WUHU216HW,2013-06-29 05:51:00,
2013-06-29 01:56:00,62.7,59.9,29.97,West,270,0.0,0.0,90,0.00,,,0.00,WUHU216HW,2013-06-29 05:56:00,
2013-06-29 02:01:00,62.7,59.9,29.97,West,270,0.0,0.0,90,0.00,,,0.00,WUHU216HW,2013-06-29 06:01:00,
2013-06-29 02:06:00,62.7,59.9,29.97,West,270,0.0,0.0,90,0.00,,,0.00,WUHU216HW,2013-06-29 06:06:00,
2013-06-29 02:11:00,62.7,60.1,29.97,West,270,0.0,0.0,91,0.00,,,0.00,WUHU216HW,2013-06-29 06:11:00,
2013-06-29 02:16:00,62.7,60.1,29.97,West,270,0.0,0.0,91,0.00,,,0.00,WUHU216HW,2013-06-29 06:16:00,
2013-06-29 02:21:00,62.7,60.1,29.96,West,270,0.0,0.0,91,0.00,,,0.00,WUHU216HW,2013-06-29 06:21:00,
2013-06-29 02:26:00,62.7,60.1,29.96,West,270,0.0,0.0,91,0.00,,,0.00,WUHU216HW,2013-06-29 06:26:00,
2013-06-29 02:31:00,62.9,60.3,29.97,West,270,0.0,0.0,91,0.00,,,0.00,WUHU216HW,2013-06-29 06:31:00,
2013-06-29 02:36:00,62.9,60.3,29.97,West,270,0.0,0.0,91,0.00,,,0.00,WUHU216HW,2013-06-29 06:36:00,
2013-06-29 02:41:00,62.9,60.3,29.97,West,270,0.0,0.0,91,0.00,,,0.00,WUHU216HW,2013-06-29 06:41:00,
2013-06-29 02:46:00,62.9,60.3,29.97,West,270,0.0,0.0,91,0.00,,,0.00,WUHU216HW,2013-06-29 06:46:00,
2013-06-29 02:51:00,62.7,60.1,29.96,West,270,0.0,0.0,91,0.00,,,0.00,WUHU216HW,2013-06-29 06:51:00,
2013-06-29 02:56:00,62.9,60.3,29.96,West,270,0.0,0.0,91,0.00,,,0.00,WUHU216HW,2013-06-29 06:56:00,
2013-06-29 03:01:00,62.9,60.3,29.96,West,270,0.0,0.0,91,0.00,,,0.00,WUHU216HW,2013-06-29 07:01:00,
2013-06-29 03:06:00,62.9,60.3,29.96,West,270,0.0,0.0,91,0.00,,,0.00,WUHU216HW,2013-06-29 07:06:00,
2013-06-29 03:11:00,62.9,60.3,29.96,West,270,0.0,0.0,91,0.00,,,0.00,WUHU216HW,2013-06-29 07:11:00,
2013-06-29 03:16:00,62.7,60.1,29.96,West,270,0.0,0.0,91,0.00,,,0.00,WUHU216HW,2013-06-29 07:16:00,
2013-06-29 03:21:00,62.7,60.1,29.96,West,270,0.0,0.0,91,0.00,,,0.00,WUHU216HW,2013-06-29 07:21:00,
2013-06-29 03:26:00,62.7,60.1,29.96,West,270,0.0,0.0,91,0.00,,,0.00,WUHU216HW,2013-06-29 07:26:00,
2013-06-29 03:31:00,62.7,60.1,29.96,West,270,0.0,0.0,91,0.00,,,0.00,WUHU216HW,2013-06-29 07:31:00,
2013-06-29 03:36:00,62.7,60.1,29.96,West,270,0.0,0.0,91,0.00,,,0.00,WUHU216HW,2013-06-29 07:36:00,
2013-06-29 03:41:00,62.7,60.1,29.96,West,270,0.0,0.0,91,0.00,,,0.00,WUHU216HW,2013-06-29 07:41:00,
2013-06-29 03:46:00,62.7,60.1,29.96,West,270,0.0,0.0,91,0.00,,,0.00,WUHU216HW,2013-06-29 07:46:00,
2013-06-29 03:51:00,62.7,60.1,29.96,West,270,0.0,0.0,91,0.00,,,0.00,WUHU216HW,2013-06-29 07:51:00,
2013-06-29 03:56:00,62.7,60.1,29.96,West,270,0.0,0.0,91,0.00,,,0.00,WUHU216HW,2013-06-29 07:56:00,
2013-06-29 04:01:00,62.7,60.1,29.96,West,270,0.0,0.0,91,0.00,,,0.00,WUHU216HW,2013-06-29 08:01:00,
2013-06-29 04:06:00,62.7,60.1,29.96,West,270,0.0,0.0,91,0.00,,,0.00,WUHU216HW,2013-06-29 08:06:00,
2013-06-29 04:11:00,62.7,60.1,29.96,West,270,0.0,0.0,91,0.00,,,0.00,WUHU216HW,2013-06-29 08:11:00,
2013-06-29 04:16:00,62.7,60.1,29.96,West,270,0.0,0.0,91,0.00,,,0.00,WUHU216HW,2013-06-29 08:16:00,
2013-06-29 04:21:00,62.7,60.1,29.96,West,270,0.0,0.0,91,0.00,,,0.00,WUHU216HW,2013-06-29 08:21:00,
2013-06-29 04:26:00,62.7,60.1,29.96,West,270,0.0,0.0,91,0.00,,,0.00,WUHU216HW,2013-06-29 08:26:00,
2013-06-29 04:31:00,62.7,60.1,29.96,West,270,0.0,0.0,91,0.00,,,0.00,WUHU216HW,2013-06-29 08:31:00,
2013-06-29 04:36:00,62.7,60.1,29.96,West,270,0.0,0.0,91,0.00,,,0.00,WUHU216HW,2013-06-29 08:36:00,
2013-06-29 04:41:00,62.6,60.0,29.96,West,270,0.0,0.0,91,0.00,,,0.00,WUHU216HW,2013-06-29 08:41:00,
2013-06-29 04:46:00,62.6,59.8,29.96,West,270,0.0,0.0,91,0.00,,,0.00,WUHU216HW,2013-06-29 08:46:00,
2013-06-29 04:51:00,62.4,59.8,29.96,West,270,0.0,0.0,91,0.00,,,0.00,WUHU216HW,2013-06-29 08:51:00,
2013-06-29 04:56:00,62.4,59.8,29.96,West,270,0.0,0.0,91,0.00,,,0.00,WUHU216HW,2013-06-29 08:56:00,
2013-06-29 05:01:00,62.4,59.8,29.97,West,270,0.0,0.0,91,0.00,,,0.00,WUHU216HW,2013-06-29 09:01:00,
2013-06-29 05:06:00,62.4,59.8,29.97,West,270,0.0,0.0,91,0.00,,,0.00,WUHU216HW,2013-06-29 09:06:00,
2013-06-29 05:11:00,62.4,59.8,29.97,West,270,0.0,0.0,91,0.00,,,0.00,WUHU216HW,2013-06-29 09:11:00,
2013-06-29 05:16:00,62.4,59.8,29.97,West,270,0.0,0.0,91,0.00,,,0.00,WUHU216HW,2013-06-29 09:16:00,
2013-06-29 05:21:00,62.4,59.8,29.97,West,270,0.0,0.0,91,0.00,,,0.00,WUHU216HW,2013-06-29 09:21:00,
2013-06-29 05:26:00,62.4,59.8,29.97,West,270,0.0,0.0,91,0.00,,,0.00,WUHU216HW,2013-06-29 09:26:00,
2013-06-29 05:31:00,62.2,59.8,29.97,West,270,0.0,0.0,91,0.00,,,0.00,WUHU216HW,2013-06-29 09:31:00,
2013-06-29 05:36:00,62.2,59.6,29.97,West,270,0.0,0.0,91,0.00,,,0.00,WUHU216HW,2013-06-29 09:36:00,
2013-06-29 05:41:00,62.2,59.6,29.97,West,270,0.0,0.0,91,0.00,,,0.00,WUHU216HW,2013-06-29 09:41:00,
2013-06-29 05:46:00,62.2,59.6,29.97,West,270,0.0,0.0,91,0.00,,,0.00,WUHU216HW,2013-06-29 09:46:00,
2013-06-29 05:51:00,62.2,59.6,29.97,West,270,0.0,0.0,91,0.00,,,0.00,WUHU216HW,2013-06-29 09:51:00,
2013-06-29 05:56:00,62.2,59.6,29.97,West,270,0.0,0.0,91,0.00,,,0.00,WUHU216HW,2013-06-29 09:56:00,
2013-06-29 06:01:00,62.2,59.6,29.98,West,270,0.0,0.0,91,0.00,,,0.00,WUHU216HW,2013-06-29 10:01:00,
2013-06-29 06:06:00,62.2,59.6,29.98,West,270,0.0,0.0,91,0.00,,,0.00,WUHU216HW,2013-06-29 10:06:00,
2013-06-29 06:11:00,62.2,59.6,29.98,West,270,0.0,0.0,91,0.00,,,0.00,WUHU216HW,2013-06-29 10:11:00,
2013-06-29 06:16:00,62.2,59.6,29.98,West,270,0.0,0.0,91,0.00,,,0.00,WUHU216HW,2013-06-29 10:16:00,
2013-06-29 06:21:00,62.2,59.6,29.98,West,270,0.0,0.0,91,0.00,,,0.00,WUHU216HW,2013-06-29 10:21:00,
2013-06-29 06:26:00,62.2,59.6,29.98,West,270,0.0,0.0,91,0.00,,,0.00,WUHU216HW,2013-06-29 10:26:00,
2013-06-29 06:31:00,62.2,59.6,29.98,West,270,0.0,0.0,91,0.00,,,0.00,WUHU216HW,2013-06-29 10:31:00,
2013-06-29 06:36:00,62.2,59.6,29.98,West,270,0.0,0.0,91,0.00,,,0.00,WUHU216HW,2013-06-29 10:36:00,
2013-06-29 06:41:00,62.2,59.6,29.98,West,270,0.0,0.0,91,0.00,,,0.00,WUHU216HW,2013-06-29 10:41:00,
2013-06-29 06:46:00,62.2,59.6,29.98,West,270,0.0,0.0,91,0.00,,,0.00,WUHU216HW,2013-06-29 10:46:00,
2013-06-29 06:51:00,62.2,59.6,29.98,West,270,0.0,0.0,91,0.00,,,0.00,WUHU216HW,2013-06-29 10:51:00,
2013-06-29 06:56:00,62.2,59.6,29.98,West,270,0.0,0.0,91,0.00,,,0.00,WUHU216HW,2013-06-29 10:56:00,
2013-06-29 07:01:00,62.2,59.6,29.98,West,270,0.0,0.0,91,0.00,,,0.00,WUHU216HW,2013-06-29 11:01:00,
2013-06-29 07:06:00,62.4,59.8,29.98,West,270,0.0,0.0,91,0.00,,,0.00,WUHU216HW,2013-06-29 11:06:00,
2013-06-29 07:11:00,62.4,59.8,29.98,West,270,0.0,0.0,91,0.00,,,0.00,WUHU216HW,2013-06-29 11:11:00,
2013-06-29 07:16:00,62.2,59.8,29.99,West,270,0.0,0.0,91,0.00,,,0.00,WUHU216HW,2013-06-29 11:16:00,
2013-06-29 07:21:00,62.4,59.8,29.99,West,270,0.0,0.0,91,0.00,,,0.00,WUHU216HW,2013-06-29 11:21:00,
2013-06-29 07:26:00,62.4,59.8,29.99,West,270,0.0,0.0,91,0.00,,,0.00,WUHU216HW,2013-06-29 11:26:00,
2013-06-29 07:31:00,62.4,59.8,29.98,West,270,0.0,0.0,91,0.00,,,0.00,WUHU216HW,2013-06-29 11:31:00,
2013-06-29 07:36:00,62.4,59.8,29.99,West,270,0.0,0.0,91,0.00,,,0.00,WUHU216HW,2013-06-29 11:36:00,
2013-06-29 07:41:00,62.4,59.8,29.99,West,270,0.0,0.0,91,0.00,,,0.00,WUHU216HW,2013-06-29 11:41:00,
2013-06-29 07:46:00,62.4,59.8,29.99,West,270,0.0,0.0,91,0.00,,,0.00,WUHU216HW,2013-06-29 11:46:00,
2013-06-29 07:51:00,62.4,59.8,29.99,NNW,338,0.0,0.0,91,0.00,,,0.00,WUHU216HW,2013-06-29 11:51:00,
2013-06-29 07:56:00,62.4,59.8,30.00,NNW,338,0.0,0.0,91,0.00,,,0.00,WUHU216HW,2013-06-29 11:56:00,
2013-06-29 08:01:00,62.4,59.8,30.00,North,0,0.0,0.0,91,0.00,,,0.00,WUHU216HW,2013-06-29 12:01:00,
2013-06-29 08:06:00,62.4,59.5,30.00,North,0,0.0,0.0,90,0.00,,,0.00,WUHU216HW,2013-06-29 12:06:00,
2013-06-29 08:11:00,62.2,59.3,30.00,North,0,0.0,0.0,90,0.00,,,0.00,WUHU216HW,2013-06-29 12:11:00,
2013-06-29 08:16:00,62.2,59.3,30.01,North,0,0.0,0.0,90,0.00,,,0.00,WUHU216HW,2013-06-29 12:16:00,
2013-06-29 08:21:00,62.2,59.3,30.01,North,0,0.0,0.0,90,0.00,,,0.00,WUHU216HW,2013-06-29 12:21:00,
2013-06-29 08:26:00,62.0,59.1,30.01,North,0,0.0,0.0,90,0.00,,,0.00,WUHU216HW,2013-06-29 12:26:00,
2013-06-29 08:31:00,62.0,59.1,30.01,North,0,0.0,0.0,90,0.00,,,0.00,WUHU216HW,2013-06-29 12:31:00,
2013-06-29 08:36:00,61.8,59.0,30.01,North,0,0.0,0.0,90,0.00,,,0.00,WUHU216HW,2013-06-29 12:36:00,
2013-06-29 08:41:00,61.8,59.0,30.01,North,0,0.0,0.0,90,0.00,,,0.00,WUHU216HW,2013-06-29 12:41:00,
2013-06-29 08:46:00,61.8,59.0,30.01,North,0,0.0,0.0,90,0.00,,,0.00,WUHU216HW,2013-06-29 12:46:00,
2013-06-29 08:51:00,61.8,58.6,30.01,North,0,0.0,0.0,89,0.00,,,0.00,WUHU216HW,2013-06-29 12:51:00,
2013-06-29 08:56:00,61.7,58.4,30.01,North,0,0.0,0.0,89,0.00,,,0.00,WUHU216HW,2013-06-29 12:56:00,
2013-06-29 09:01:00,61.7,58.4,30.01,North,0,0.0,0.0,89,0.00,,,0.00,WUHU216HW,2013-06-29 13:01:00,
2013-06-29 09:06:00,61.7,58.4,30.02,North,0,0.0,0.0,89,0.00,,,0.00,WUHU216HW,2013-06-29 13:06:00,
2013-06-29 09:11:00,61.5,58.2,30.02,North,0,0.0,0.0,89,0.00,,,0.00,WUHU216HW,2013-06-29 13:11:00,
2013-06-29 09:16:00,61.5,58.6,30.02,North,0,0.0,0.0,90,0.00,,,0.00,WUHU216HW,2013-06-29 13:16:00,
2013-06-29 09:21:00,61.5,58.2,30.02,North,0,0.0,4.2,89,0.00,,,0.00,WUHU216HW,2013-06-29 13:21:00,
2013-06-29 09:26:00,61.1,57.9,30.02,North,0,0.2,4.2,89,0.00,,,0.00,WUHU216HW,2013-06-29 13:26:00,
2013-06-29 09:31:00,60.9,57.7,30.02,North,0,0.0,1.7,89,0.00,,,0.00,WUHU216HW,2013-06-29 13:31:00,
2013-06-29 09:36:00,60.6,57.4,30.02,North,0,0.0,0.0,89,0.00,,,0.00,WUHU216HW,2013-06-29 13:36:00,
2013-06-29 09:41:00,60.4,57.2,30.03,North,0,0.0,0.0,89,0.00,,,0.00,WUHU216HW,2013-06-29 13:41:00,
2013-06-29 09:46:00,60.4,57.2,30.02,North,0,0.0,0.0,89,0.00,,,0.00,WUHU216HW,2013-06-29 13:46:00,
2013-06-29 09:51:00,60.4,57.5,30.03,North,0,0.0,0.0,90,0.00,,,0.00,WUHU216HW,2013-06-29 13:51:00,
2013-06-29 09:56:00,60.4,57.5,30.03,North,0,0.0,0.0,90,0.00,,,0.00,WUHU216HW,2013-06-29 13:56:00,
2013-06-29 10:01:00,60.4,57.5,30.03,North,0,0.0,0.0,90,0.00,,,0.00,WUHU216HW,2013-06-29 14:01:00,
2013-06-29 10:06:00,60.6,57.7,30.03,North,0,0.0,0.0,90,0.00,,,0.00,WUHU216HW,2013-06-29 14:06:00,
2013-06-29 10:11:00,60.6,57.7,30.03,North,0,0.0,0.0,90,0.00,,,0.00,WUHU216HW,2013-06-29 14:11:00,
2013-06-29 10:16:00,60.4,57.5,30.03,North,0,0.0,0.0,90,0.00,,,0.00,WUHU216HW,2013-06-29 14:16:00,
2013-06-29 10:21:00,60.4,57.5,30.03,North,0,0.0,0.0,90,0.00,,,0.00,WUHU216HW,2013-06-29 14:21:00,
2013-06-29 10:26:00,60.4,57.5,30.03,North,0,0.0,0.0,90,0.00,,,0.00,WUHU216HW,2013-06-29 14:26:00,
2013-06-29 10:31:00,60.6,57.7,30.03,North,0,0.0,0.0,90,0.00,,,0.00,WUHU216HW,2013-06-29 14:31:00,
2013-06-29 10:36:00,60.6,57.7,30.03,North,0,0.0,0.0,90,0.00,,,0.00,WUHU216HW,2013-06-29 14:36:00,
2013-06-29 10:41:00,60.6,57.7,30.03,North,0,0.0,0.0,90,0.00,,,0.00,WUHU216HW,2013-06-29 14:41:00,
2013-06-29 10:46:00,60.9,58.1,30.03,North,0,0.0,0.0,90,0.00,,,0.00,WUHU216HW,2013-06-29 14:46:00,
2013-06-29 10:51:00,60.9,58.1,30.03,North,0,0.0,0.0,90,0.00,,,0.00,WUHU216HW,2013-06-29 14:51:00,
2013-06-29 10:56:00,61.1,58.2,30.03,North,0,0.0,0.0,90,0.00,,,0.00,WUHU216HW,2013-06-29 14:56:00,
2013-06-29 11:01:00,61.3,58.4,30.03,North,0,0.0,0.0,90,0.00,,,0.00,WUHU216HW,2013-06-29 15:01:00,
2013-06-29 11:06:00,61.7,58.8,30.03,North,0,0.0,0.0,90,0.00,,,0.00,WUHU216HW,2013-06-29 15:06:00,
2013-06-29 11:11:00,61.7,58.8,30.03,North,0,0.0,0.0,90,0.00,,,0.00,WUHU216HW,2013-06-29 15:11:00,
2013-06-29 11:16:00,61.8,59.0,30.03,North,0,0.0,0.0,90,0.00,,,0.00,WUHU216HW,2013-06-29 15:16:00,
2013-06-29 11:21:00,61.8,59.0,30.04,North,0,0.0,0.0,90,0.00,,,0.00,WUHU216HW,2013-06-29 15:21:00,
2013-06-29 11:26:00,61.8,59.0,30.04,North,0,0.0,0.0,90,0.00,,,0.00,WUHU216HW,2013-06-29 15:26:00,
2013-06-29 11:31:00,61.8,58.6,30.04,North,0,0.0,0.0,90,0.00,,,0.00,WUHU216HW,2013-06-29 15:31:00,
2013-06-29 11:36:00,61.8,58.6,30.04,North,0,0.0,0.0,89,0.00,,,0.00,WUHU216HW,2013-06-29 15:36:00,
2013-06-29 11:41:00,62.2,59.0,30.04,North,0,0.0,0.0,89,0.00,,,0.00,WUHU216HW,2013-06-29 15:41:00,
2013-06-29 11:46:00,62.2,59.0,30.04,North,0,0.0,0.0,89,0.00,,,0.00,WUHU216HW,2013-06-29 15:46:00,
2013-06-29 11:51:00,62.4,59.1,30.04,North,0,0.0,0.0,89,0.00,,,0.00,WUHU216HW,2013-06-29 15:51:00,
2013-06-29 11:56:00,62.4,59.1,30.04,North,0,0.0,0.0,89,0.00,,,0.00,WUHU216HW,2013-06-29 15:56:00,
2013-06-29 12:01:00,62.9,59.7,30.04,North,0,0.0,0.0,89,0.00,,,0.00,WUHU216HW,2013-06-29 16:01:00,
2013-06-29 12:06:00,63.1,59.9,30.04,North,0,0.0,0.0,89,0.00,,,0.00,WUHU216HW,2013-06-29 16:06:00,
2013-06-29 12:11:00,63.5,60.2,30.04,North,0,0.0,0.0,89,0.00,,,0.00,WUHU216HW,2013-06-29 16:11:00,
2013-06-29 12:16:00,64.0,60.8,30.04,North,0,0.0,0.0,89,0.00,,,0.00,WUHU216HW,2013-06-29 16:16:00,
2013-06-29 12:21:00,64.2,60.6,30.04,North,0,0.0,0.0,88,0.00,,,0.00,WUHU216HW,2013-06-29 16:21:00,
2013-06-29 12:26:00,64.5,60.9,30.05,North,0,0.0,0.0,88,0.00,,,0.00,WUHU216HW,2013-06-29 16:26:00,
2013-06-29 12:31:00,65.1,61.1,30.05,North,0,0.0,0.0,87,0.00,,,0.00,WUHU216HW,2013-06-29 16:31:00,
2013-06-29 12:36:00,65.4,61.4,30.05,North,0,0.0,0.0,87,0.00,,,0.00,WUHU216HW,2013-06-29 16:36:00,
2013-06-29 12:41:00,65.6,61.6,30.05,North,0,0.0,0.0,87,0.00,,,0.00,WUHU216HW,2013-06-29 16:41:00,
2013-06-29 12:46:00,65.8,61.5,30.05,North,0,0.0,0.0,86,0.00,,,0.00,WUHU216HW,2013-06-29 16:46:00,
2013-06-29 12:51:00,65.8,61.1,30.05,North,0,0.0,0.0,85,0.00,,,0.00,WUHU216HW,2013-06-29 16:51:00,
2013-06-29 12:56:00,65.6,60.6,30.04,North,0,0.0,0.0,84,0.00,,,0.00,WUHU216HW,2013-06-29 16:56:00,
2013-06-29 13:01:00,66.0,61.0,30.04,North,0,0.0,0.0,84,0.00,,,0.00,WUHU216HW,2013-06-29 17:01:00,
2013-06-29 13:06:00,66.0,60.3,30.04,North,0,0.0,0.0,82,0.00,,,0.00,WUHU216HW,2013-06-29 17:06:00,
2013-06-29 13:11:00,66.2,60.5,30.05,North,0,0.0,0.0,82,0.00,,,0.00,WUHU216HW,2013-06-29 17:11:00,
2013-06-29 13:16:00,66.3,61.0,30.04,North,0,0.0,0.0,83,0.00,,,0.00,WUHU216HW,2013-06-29 17:16:00,
2013-06-29 13:21:00,66.0,61.0,30.05,North,0,0.0,0.0,84,0.00,,,0.00,WUHU216HW,2013-06-29 17:21:00,
2013-06-29 13:26:00,66.0,60.6,30.04,North,0,0.0,0.0,83,0.00,,,0.00,WUHU216HW,2013-06-29 17:26:00,
2013-06-29 13:31:00,65.8,60.5,30.05,North,0,0.0,0.0,83,0.00,,,0.00,WUHU216HW,2013-06-29 17:31:00,
2013-06-29 13:36:00,65.6,60.3,30.04,North,0,0.0,0.0,83,0.00,,,0.00,WUHU216HW,2013-06-29 17:36:00,
2013-06-29 13:41:00,65.4,60.1,30.04,North,0,0.0,0.0,83,0.00,,,0.00,WUHU216HW,2013-06-29 17:41:00,
2013-06-29 13:46:00,65.3,59.9,30.04,North,0,0.0,0.0,83,0.00,,,0.00,WUHU216HW,2013-06-29 17:46:00,
2013-06-29 13:51:00,65.3,59.9,30.04,North,0,0.0,0.0,83,0.00,,,0.00,WUHU216HW,2013-06-29 17:51:00,
2013-06-29 13:56:00,65.1,59.8,30.04,North,0,0.0,0.0,83,0.00,,,0.00,WUHU216HW,2013-06-29 17:56:00,
2013-06-29 14:01:00,65.1,59.8,30.04,North,0,0.0,0.0,83,0.00,,,0.00,WUHU216HW,2013-06-29 18:01:00,
2013-06-29 14:06:00,65.1,59.8,30.05,North,0,0.0,0.0,83,0.00,,,0.00,WUHU216HW,2013-06-29 18:06:00,
2013-06-29 14:11:00,65.1,59.8,30.05,North,0,0.0,0.0,83,0.00,,,0.00,WUHU216HW,2013-06-29 18:11:00,
2013-06-29 14:16:00,65.1,60.1,30.05,North,0,0.0,0.0,84,0.00,,,0.00,WUHU216HW,2013-06-29 18:16:00,
2013-06-29 14:21:00,65.1,60.1,30.05,North,0,0.0,0.0,84,0.00,,,0.00,WUHU216HW,2013-06-29 18:21:00,
2013-06-29 14:26:00,65.3,60.3,30.05,North,0,0.0,0.0,84,0.00,,,0.00,WUHU216HW,2013-06-29 18:26:00,
2013-06-29 14:31:00,65.3,60.3,30.05,North,0,0.0,0.0,84,0.00,,,0.00,WUHU216HW,2013-06-29 18:31:00,
2013-06-29 14:36:00,65.3,60.3,30.05,North,0,0.0,0.0,84,0.00,,,0.00,WUHU216HW,2013-06-29 18:36:00,
2013-06-29 14:41:00,65.3,59.9,30.05,North,0,0.0,0.0,83,0.00,,,0.00,WUHU216HW,2013-06-29 18:41:00,
2013-06-29 14:46:00,65.4,60.1,30.05,North,0,0.0,0.0,83,0.00,,,0.00,WUHU216HW,2013-06-29 18:46:00,
2013-06-29 14:51:00,65.4,59.8,30.05,North,0,0.0,0.0,82,0.00,,,0.00,WUHU216HW,2013-06-29 18:51:00,
2013-06-29 14:56:00,65.8,60.1,30.05,North,0,0.0,0.0,82,0.00,,,0.00,WUHU216HW,2013-06-29 18:56:00,
2013-06-29 15:01:00,65.6,60.3,30.05,North,0,0.0,0.0,83,0.00,,,0.00,WUHU216HW,2013-06-29 19:01:00,
2013-06-29 15:06:00,65.8,60.8,30.05,North,0,0.0,0.0,84,0.00,,,0.00,WUHU216HW,2013-06-29 19:06:00,
2013-06-29 15:11:00,66.0,61.0,30.05,North,0,0.0,0.0,84,0.00,,,0.00,WUHU216HW,2013-06-29 19:11:00,
2013-06-29 15:16:00,66.3,61.3,30.05,North,0,0.0,0.0,84,0.00,,,0.00,WUHU216HW,2013-06-29 19:16:00,
2013-06-29 15:21:00,66.7,61.4,30.05,North,0,0.0,0.0,83,0.00,,,0.00,WUHU216HW,2013-06-29 19:21:00,
2013-06-29 15:26:00,66.9,61.5,30.06,North,0,0.0,0.0,83,0.00,,,0.00,WUHU216HW,2013-06-29 19:26:00,
2013-06-29 15:31:00,67.2,61.6,30.06,NE,45,0.0,0.0,82,0.00,,,0.00,WUHU216HW,2013-06-29 19:31:00,
2013-06-29 15:36:00,67.6,61.6,30.06,NE,45,0.0,0.0,81,0.00,,,0.00,WUHU216HW,2013-06-29 19:36:00,
2013-06-29 15:41:00,67.8,61.8,30.06,NE,45,0.0,0.0,81,0.00,,,0.00,WUHU216HW,2013-06-29 19:41:00,
2013-06-29 15:46:00,68.3,62.3,30.06,NE,45,0.0,0.0,81,0.00,,,0.00,WUHU216HW,2013-06-29 19:46:00,
2013-06-29 15:51:00,68.7,62.6,30.06,NE,45,0.0,0.0,81,0.00,,,0.00,WUHU216HW,2013-06-29 19:51:00,
2013-06-29 15:56:00,68.7,62.3,30.06,ENE,68,0.0,0.0,80,0.00,,,0.00,WUHU216HW,2013-06-29 19:56:00,
2013-06-29 16:01:00,68.1,61.1,30.06,ENE,68,0.0,0.0,78,0.00,,,0.00,WUHU216HW,2013-06-29 20:01:00,
2013-06-29 16:06:00,67.8,60.7,30.06,ENE,68,0.0,0.0,78,0.00,,,0.00,WUHU216HW,2013-06-29 20:06:00,
2013-06-29 16:11:00,67.6,60.9,30.06,ENE,68,0.0,0.0,79,0.00,,,0.00,WUHU216HW,2013-06-29 20:11:00,
2013-06-29 16:16:00,67.2,60.9,30.06,ENE,68,0.0,0.0,80,0.00,,,0.00,WUHU216HW,2013-06-29 20:16:00,
2013-06-29 16:21:00,67.2,60.9,30.07,ENE,68,0.0,0.0,80,0.00,,,0.00,WUHU216HW,2013-06-29 20:21:00,
2013-06-29 16:26:00,67.2,60.9,30.07,ENE,68,0.0,0.0,80,0.00,,,0.00,WUHU216HW,2013-06-29 20:26:00,
2013-06-29 16:31:00,67.2,60.9,30.07,ENE,68,0.0,0.0,80,0.00,,,0.00,WUHU216HW,2013-06-29 20:31:00,
2013-06-29 16:36:00,67.2,60.9,30.07,ENE,68,0.0,0.0,80,0.00,,,0.00,WUHU216HW,2013-06-29 20:36:00,
2013-06-29 16:41:00,67.4,61.4,30.07,ENE,68,0.0,0.0,81,0.00,,,0.00,WUHU216HW,2013-06-29 20:41:00,
2013-06-29 16:46:00,67.8,61.8,30.07,ENE,68,0.0,0.0,81,0.00,,,0.00,WUHU216HW,2013-06-29 20:46:00,
2013-06-29 16:51:00,68.1,61.8,30.07,ENE,68,0.0,0.0,80,0.00,,,0.00,WUHU216HW,2013-06-29 20:51:00,
2013-06-29 16:56:00,68.5,62.1,30.07,ENE,68,0.0,0.0,80,0.00,,,0.00,WUHU216HW,2013-06-29 20:56:00,
2013-06-29 17:01:00,68.9,62.1,30.07,ENE,68,0.0,0.0,79,0.00,,,0.00,WUHU216HW,2013-06-29 21:01:00,
2013-06-29 17:06:00,69.2,62.8,30.06,ENE,68,0.0,0.0,80,0.00,,,0.00,WUHU216HW,2013-06-29 21:06:00,
2013-06-29 17:11:00,69.6,62.7,30.06,ENE,68,0.0,0.0,79,0.00,,,0.00,WUHU216HW,2013-06-29 21:11:00,
2013-06-29 17:16:00,70.3,63.1,30.06,SSW,203,0.0,0.0,78,0.00,,,0.00,WUHU216HW,2013-06-29 21:16:00,
2013-06-29 17:21:00,70.5,62.5,30.07,NNW,338,0.0,0.0,76,0.00,,,0.00,WUHU216HW,2013-06-29 21:21:00,
2013-06-29 17:26:00,70.8,61.3,30.07,NNW,338,0.0,0.0,72,0.00,,,0.00,WUHU216HW,2013-06-29 21:26:00,
2013-06-29 17:31:00,70.8,60.6,30.06,North,0,0.0,0.0,70,0.00,,,0.00,WUHU216HW,2013-06-29 21:31:00,
2013-06-29 17:36:00,70.7,60.4,30.07,North,0,0.0,0.0,70,0.00,,,0.00,WUHU216HW,2013-06-29 21:36:00,
2013-06-29 17:41:00,70.5,60.6,30.07,North,0,0.0,0.0,71,0.00,,,0.00,WUHU216HW,2013-06-29 21:41:00,
2013-06-29 17:46:00,70.5,60.6,30.07,North,0,0.0,0.0,71,0.00,,,0.00,WUHU216HW,2013-06-29 21:46:00,
2013-06-29 17:51:00,70.5,60.6,30.07,North,0,0.0,0.0,71,0.00,,,0.00,WUHU216HW,2013-06-29 21:51:00,
2013-06-29 17:56:00,70.5,60.6,30.07,North,0,0.0,0.0,71,0.00,,,0.00,WUHU216HW,2013-06-29 21:56:00,
2013-06-29 18:01:00,70.8,60.6,30.07,North,0,0.0,0.0,70,0.00,,,0.00,WUHU216HW,2013-06-29 22:01:00,
2013-06-29 18:06:00,70.8,60.9,30.07,North,0,0.0,0.0,71,0.00,,,0.00,WUHU216HW,2013-06-29 22:06:00,
2013-06-29 18:11:00,71.2,61.7,30.08,North,0,0.0,0.0,72,0.00,,,0.00,WUHU216HW,2013-06-29 22:11:00,
2013-06-29 18:16:00,71.4,61.9,30.08,North,0,0.0,0.0,72,0.00,,,0.00,WUHU216HW,2013-06-29 22:16:00,
2013-06-29 18:21:00,71.4,61.5,30.08,NE,45,0.0,0.0,71,0.00,,,0.00,WUHU216HW,2013-06-29 22:21:00,
2013-06-29 18:26:00,71.4,61.5,30.08,NE,45,0.0,0.0,71,0.00,,,0.00,WUHU216HW,2013-06-29 22:26:00,
2013-06-29 18:31:00,71.2,61.7,30.08,NE,45,0.0,0.0,72,0.00,,,0.00,WUHU216HW,2013-06-29 22:31:00,
2013-06-29 18:36:00,70.8,61.3,30.08,NE,45,0.0,0.0,72,0.00,,,0.00,WUHU216HW,2013-06-29 22:36:00,
2013-06-29 18:41:00,70.5,61.0,30.08,NE,45,0.0,0.0,72,0.00,,,0.00,WUHU216HW,2013-06-29 22:41:00,
2013-06-29 18:46:00,70.3,61.2,30.08,NE,45,0.0,0.0,73,0.00,,,0.00,WUHU216HW,2013-06-29 22:46:00,
2013-06-29 18:51:00,70.1,61.4,30.08,NE,45,0.0,0.0,74,0.00,,,0.00,WUHU216HW,2013-06-29 22:51:00,
2013-06-29 18:56:00,69.9,61.6,30.08,NE,45,0.0,0.0,75,0.00,,,0.00,WUHU216HW,2013-06-29 22:56:00,
2013-06-29 19:01:00,69.6,61.2,30.08,NE,45,0.0,0.0,75,0.00,,,0.00,WUHU216HW,2013-06-29 23:01:00,
2013-06-29 19:06:00,69.6,61.2,30.09,NE,45,0.0,0.0,75,0.00,,,0.00,WUHU216HW,2013-06-29 23:06:00,
2013-06-29 19:11:00,69.4,61.4,30.08,NE,45,0.0,0.0,76,0.00,,,0.00,WUHU216HW,2013-06-29 23:11:00,
2013-06-29 19:16:00,69.0,61.5,30.09,NE,45,0.0,0.0,77,0.00,,,0.00,WUHU216HW,2013-06-29 23:16:00,
2013-06-29 19:21:00,68.7,61.2,30.09,NE,45,0.0,0.0,77,0.00,,,0.00,WUHU216HW,2013-06-29 23:21:00,
2013-06-29 19:26:00,68.7,60.8,30.09,NE,45,0.0,0.0,76,0.00,,,0.00,WUHU216HW,2013-06-29 23:26:00,
2013-06-29 19:31:00,68.3,60.8,30.09,NE,45,0.0,0.0,77,0.00,,,0.00,WUHU216HW,2013-06-29 23:31:00,
2013-06-29 19:36:00,68.1,61.1,30.09,NE,45,0.0,0.0,78,0.00,,,0.00,WUHU216HW,2013-06-29 23:36:00,
2013-06-29 19:41:00,68.0,60.9,30.10,NE,45,0.0,0.0,78,0.00,,,0.00,WUHU216HW,2013-06-29 23:41:00,
2013-06-29 19:46:00,67.8,60.7,30.10,NE,45,0.0,0.0,78,0.00,,,0.00,WUHU216HW,2013-06-29 23:46:00,
2013-06-29 19:51:00,67.6,60.5,30.11,NE,45,0.0,0.0,78,0.00,,,0.00,WUHU216HW,2013-06-29 23:51:00,
2013-06-29 19:56:00,67.6,60.9,30.11,NE,45,0.0,0.0,79,0.00,,,0.00,WUHU216HW,2013-06-29 23:56:00,
2013-06-29 20:01:00,67.2,60.6,30.11,NE,45,0.0,0.0,79,0.00,,,0.00,WUHU216HW,2013-06-30 00:01:00,
2013-06-29 20:06:00,67.1,60.4,30.11,NE,45,0.0,0.0,79,0.00,,,0.00,WUHU216HW,2013-06-30 00:06:00,
2013-06-29 20:11:00,66.9,60.2,30.11,NE,45,0.0,0.0,79,0.00,,,0.00,WUHU216HW,2013-06-30 00:11:00,
2013-06-29 20:16:00,66.7,60.4,30.11,NE,45,0.0,0.0,80,0.00,,,0.00,WUHU216HW,2013-06-30 00:16:00,
2013-06-29 20:21:00,66.7,60.4,30.12,NE,45,0.0,0.0,80,0.00,,,0.00,WUHU216HW,2013-06-30 00:21:00,
2013-06-29 20:26:00,66.5,60.2,30.11,NE,45,0.0,0.0,80,0.00,,,0.00,WUHU216HW,2013-06-30 00:26:00,
2013-06-29 20:31:00,66.3,60.0,30.12,NE,45,0.0,0.0,80,0.00,,,0.00,WUHU216HW,2013-06-30 00:31:00,
2013-06-29 20:36:00,66.3,60.0,30.12,NE,45,0.0,0.0,80,0.00,,,0.00,WUHU216HW,2013-06-30 00:36:00,
2013-06-29 20:41:00,66.0,59.7,30.12,NE,45,0.0,0.0,80,0.00,,,0.00,WUHU216HW,2013-06-30 00:41:00,
2013-06-29 20:46:00,66.0,60.0,30.12,NE,45,0.0,0.0,81,0.00,,,0.00,WUHU216HW,2013-06-30 00:46:00,
2013-06-29 20:51:00,66.0,60.0,30.12,NE,45,0.0,0.0,81,0.00,,,0.00,WUHU216HW,2013-06-30 00:51:00,
2013-06-29 20:56:00,65.8,60.1,30.12,NE,45,0.0,0.0,82,0.00,,,0.00,WUHU216HW,2013-06-30 00:56:00,
2013-06-29 21:01:00,65.4,59.8,30.12,NE,45,0.0,0.0,82,0.00,,,0.00,WUHU216HW,2013-06-30 01:01:00,
2013-06-29 21:06:00,65.3,59.6,30.12,NE,45,0.0,0.0,82,0.00,,,0.00,WUHU216HW,2013-06-30 01:06:00,
2013-06-29 21:11:00,65.3,59.6,30.13,NE,45,0.0,0.0,82,0.00,,,0.00,WUHU216HW,2013-06-30 01:11:00,
2013-06-29 21:16:00,65.1,59.4,30.13,NE,45,0.0,0.0,82,0.00,,,0.00,WUHU216HW,2013-06-30 01:16:00,
2013-06-29 21:21:00,65.1,59.4,30.13,NE,45,0.0,0.0,82,0.00,,,0.00,WUHU216HW,2013-06-30 01:21:00,
2013-06-29 21:26:00,65.1,59.4,30.13,NE,45,0.0,0.0,82,0.00,,,0.00,WUHU216HW,2013-06-30 01:26:00,
2013-06-29 21:31:00,64.9,59.6,30.13,NE,45,0.0,0.0,83,0.00,,,0.00,WUHU216HW,2013-06-30 01:31:00,
2013-06-29 21:36:00,64.7,59.4,30.13,NE,45,0.0,0.0,83,0.00,,,0.00,WUHU216HW,2013-06-30 01:36:00,
2013-06-29 21:41:00,64.5,59.2,30.13,NE,45,0.0,0.0,83,0.00,,,0.00,WUHU216HW,2013-06-30 01:41:00,
2013-06-29 21:46:00,64.5,59.2,30.13,NE,45,0.0,0.0,83,0.00,,,0.00,WUHU216HW,2013-06-30 01:46:00,
2013-06-29 21:51:00,64.2,58.9,30.13,NE,45,0.0,0.0,83,0.00,,,0.00,WUHU216HW,2013-06-30 01:51:00,
2013-06-29 21:56:00,64.2,58.9,30.13,NE,45,0.0,0.0,83,0.00,,,0.00,WUHU216HW,2013-06-30 01:56:00,
2013-06-29 22:01:00,64.0,59.1,30.13,NE,45,0.0,0.0,84,0.00,,,0.00,WUHU216HW,2013-06-30 02:01:00,
2013-06-29 22:06:00,63.6,58.7,30.13,NE,45,0.0,0.0,84,0.00,,,0.00,WUHU216HW,2013-06-30 02:06:00,
2013-06-29 22:11:00,63.5,58.5,30.14,NE,45,0.0,0.0,84,0.00,,,0.00,WUHU216HW,2013-06-30 02:11:00,
2013-06-29 22:16:00,63.1,58.2,30.14,NE,45,0.0,0.0,84,0.00,,,0.00,WUHU216HW,2013-06-30 02:16:00,
2013-06-29 22:21:00,63.1,58.2,30.14,NE,45,0.0,0.0,84,0.00,,,0.00,WUHU216HW,2013-06-30 02:21:00,
2013-06-29 22:26:00,62.7,58.1,30.14,NE,45,0.0,0.0,85,0.00,,,0.00,WUHU216HW,2013-06-30 02:26:00,
2013-06-29 22:31:00,62.4,57.8,30.15,NE,45,0.0,0.0,85,0.00,,,0.00,WUHU216HW,2013-06-30 02:31:00,
2013-06-29 22:36:00,62.4,57.8,30.15,NE,45,0.0,0.0,85,0.00,,,0.00,WUHU216HW,2013-06-30 02:36:00,
2013-06-29 22:41:00,62.4,57.8,30.15,NE,45,0.0,0.0,85,0.00,,,0.00,WUHU216HW,2013-06-30 02:41:00,
2013-06-29 22:46:00,62.0,57.4,30.15,NE,45,0.0,0.0,85,0.00,,,0.00,WUHU216HW,2013-06-30 02:46:00,
2013-06-29 22:51:00,61.8,57.3,30.15,NE,45,0.0,0.0,85,0.00,,,0.00,WUHU216HW,2013-06-30 02:51:00,
2013-06-29 22:56:00,61.7,57.1,30.15,NE,45,0.0,0.0,85,0.00,,,0.00,WUHU216HW,2013-06-30 02:56:00,
2013-06-29 23:01:00,61.7,57.1,30.15,NE,45,0.0,0.0,85,0.00,,,0.00,WUHU216HW,2013-06-30 03:01:00,
2013-06-29 23:06:00,61.5,56.9,30.15,NE,45,0.0,0.0,85,0.00,,,0.00,WUHU216HW,2013-06-30 03:06:00,
2013-06-29 23:11:00,61.5,56.9,30.15,NE,45,0.0,0.0,85,0.00,,,0.00,WUHU216HW,2013-06-30 03:11:00,
2013-06-29 23:16:00,61.3,57.1,30.15,NE,45,0.0,0.0,86,0.00,,,0.00,WUHU216HW,2013-06-30 03:16:00,
2013-06-29 23:21:00,61.3,57.1,30.15,NE,45,0.0,0.0,86,0.00,,,0.00,WUHU216HW,2013-06-30 03:21:00,
2013-06-29 23:26:00,61.1,56.9,30.15,NE,45,0.0,0.0,86,0.00,,,0.00,WUHU216HW,2013-06-30 03:26:00,
2013-06-29 23:31:00,61.1,56.9,30.16,NE,45,0.0,0.0,86,0.00,,,0.00,WUHU216HW,2013-06-30 03:31:00,
2013-06-29 23:36:00,61.1,56.9,30.16,NE,45,0.0,0.0,86,0.00,,,0.00,WUHU216HW,2013-06-30 03:36:00,
2013-06-29 23:41:00,60.9,56.7,30.15,NE,45,0.0,0.0,86,0.00,,,0.00,WUHU216HW,2013-06-30 03:41:00,
2013-06-29 23:46:00,60.9,56.7,30.15,NE,45,0.0,0.0,86,0.00,,,0.00,WUHU216HW,2013-06-30 03:46:00,
2013-06-29 23:51:00,60.9,57.1,30.16,NE,45,0.0,0.0,87,0.00,,,0.00,WUHU216HW,2013-06-30 03:51:00,
2013-06-29 23:56:00,60.8,56.9,30.15,NE,45,0.0,0.0,87,0.00,,,0.00,WUHU216HW,2013-06-30 03:56:00,